Overview Statistics Trail Chart Weather Telemetry Raw packets
 

This is the latest recevied weather packets stored in our database for station/object KC2TER. If no packets are shown the sender has not sent any weather packets the latest 10 day(s).

<< 107 108 109 110 111 112 113 >>
Time Temp. Humidity Pressure Rain* Wind** Luminosity Snow
1787752929 22.22° C 74% 1019.3 hPa 0 mm - 54 W/m² -
1787752628 22.22° C 74% 1019.1 hPa 0 mm - 189 W/m² -
1787752324 22.22° C 74% 1019.2 hPa 0 mm - 51 W/m² -
1787752022 22.22° C 75% 1019 hPa 0 mm - 295 W/m² -
1787751717 22.22° C 75% 1019.3 hPa 0 mm - 51 W/m² -
1787751413 21.67° C 77% 1018.9 hPa 0 mm - 49 W/m² -
1787751109 21.67° C 76% 1019.1 hPa 0 mm - 49 W/m² -
1787750804 21.67° C 77% 1019.1 hPa 0 mm - 50 W/m² -
1787750503 21.11° C 78% 1019.4 hPa 0 mm - 46 W/m² -
1787750198 21.11° C 78% 1019.2 hPa 0 mm - 46 W/m² -
1787749894 21.11° C 78% 1019.2 hPa 0 mm - 92 W/m² -
1787749590 21.11° C 80% 1019.1 hPa 0 mm - 150 W/m² -
1787749286 21.11° C 80% 1018.9 hPa 0 mm - 46 W/m² -
1787748980 21.11° C 80% 1019.3 hPa 0 mm - 173 W/m² -
1787748675 20.56° C 82% 1019.4 hPa 0 mm - 42 W/m² -
1787748370 20.56° C 83% 1019 hPa 0 mm - 97 W/m² -
1787748066 20.56° C 84% 1019.3 hPa 0 mm - 155 W/m² -
1787747765 20° C 85% 1019.4 hPa 0 mm - 42 W/m² -
1787747461 20° C 85% 1019.3 hPa 0 mm - 41 W/m² -
1787747156 19.44° C 87% 1019.6 hPa 0 mm - 42 W/m² -
1787746853 19.44° C 88% 1019.4 hPa 0 mm - 40 W/m² -
1787746552 18.89° C 90% 1019.5 hPa 0 mm - 39 W/m² -
1787746251 18.89° C 90% 1019.5 hPa 0 mm - 40 W/m² -
1787745950 18.33° C 91% 1019.4 hPa 0 mm - 37 W/m² -
1787745650 18.33° C 92% 1019.4 hPa 0 mm - 41 W/m² -

* Rain latest hour (hover to see other rain measurements)
** Current wind speed in m/s (hover to see current wind gust speed)